2018-092C (44041 NORAD) Tracking and Keplerian Element Data

This shows tracking and keplerian element data for the satellite.

Feedback or suggestion? Click here.




ElementValue
Catalog44041
Name2018-092C
Epoch Orbit218
Epoch Day53.59986325
Epoch Year2019
RAAN212.7017
Inclination51.6423
Eccentricity0.0003815
Argument of Perigee53.8981
Mean Anonmoly306.2305
Mean Motion15.36475734
Decay Rate1.151E-05
L11 44041U 18092C 19053.59986325 .00001151 00000-0 42562-4 0 9999
L22 44041 51.6423 212.7017 0003815 53.8981 306.2305 15.36475734 2182

Live tracking and technical data element details for 2018-092C (NORAD 44041). 2018-092C can be tracked NOW for your location showing map with azimuth and elevation plus other details from your city location.

Track the satellite on the map from your city or location and see movement details for azimuth, elevation, latitude, longitude, range, height, and movement on the map or in text.







IsCatalogInMostPopularTable: catalog: 44041, numindb: 7
Update: records affected: 1



GetName: 44041 2018-092C

Hit Count: updated at: Sat, 23 Feb 2019 17:14:49 GMT